^^

..:: Storico WU ::..




Lo storico viene creato da WUnderground con i dati che la stazione Meteomincio invia al loro server. L' aggiornamento viene fatto ogni 5 minuti circa, tuttavia possono esserci intervalli pił ampi a causa di errori, interruzioni di servizio o problemi nell' invio tramite FTP.


Storico stazione MeteoMincio
Giorno Sommario per Dicembre 22, 2022 Unità:  Inglese    Metrico   Entrambi
Giorno Settimana Mese Anno
  Max: Min: Media:
Temperatura: 48.2 °F 42.8 °F 44.4 °F
Dew Point: 46.4 °F 41 °F 43.3 °F
Umidità: 97% 91% 95%
Velocità vento: 8.1mph 0mph 2.4mph
Raffica: 10.6mph - -
Direzione- - SW
Pressione: 30.1 in 30 in -
Precipitazioni: 0.01 in    
 
 
Tabulato Dati per Dicembre 22, 2022
Ora Temperatura Dew Point Pressione Direzione Velocità vento Raffica Umidità Intensità pioggia (oraria) Info solare Situazione
00:04 42.8 °F 42.8 °F 30.1 in Calm     97% 0.01 in 0.00 W/m2 unknown
00:09 42.8 °F 42.8 °F 30.1 in Calm     97% 0.01 in 0.00 W/m2 unknown
00:14 42.8 °F 42.8 °F 30.1 in SW 1.2 mph 1.9 mph 97% 0.01 in 0.00 W/m2 unknown
00:19 42.8 °F 42.8 °F 30.1 in WSW 1.2 mph 2.5 mph 97% 0 in 0.00 W/m2 unknown
00:24 42.8 °F 42.8 °F 30.1 in West 1.9 mph 3.7 mph 97% 0 in 0.00 W/m2 unknown
00:29 42.8 °F 42.8 °F 30.1 in West 1.9 mph 3.7 mph 97% 0 in 0.00 W/m2 unknown
00:34 42.8 °F 42.8 °F 30.1 in WSW 1.9 mph 3.7 mph 97% 0 in 0.00 W/m2 unknown
00:39 42.8 °F 42.8 °F 30.1 in WSW 2.5 mph 3.7 mph 97% 0 in 0.00 W/m2 unknown
00:44 42.8 °F 42.8 °F 30.1 in WSW 1.9 mph 3.7 mph 97% 0 in 0.00 W/m2 unknown
00:49 42.8 °F 42.8 °F 30.1 in West 2.5 mph 3.7 mph 97% 0 in 0.00 W/m2 unknown
00:54 42.8 °F 42.8 °F 30.1 in West 2.5 mph 3.7 mph 97% 0 in 0.00 W/m2 unknown
00:59 42.8 °F 42.8 °F 30.1 in West 1.2 mph 3.1 mph 97% 0 in 0.00 W/m2 unknown
01:04 42.8 °F 42.8 °F 30.1 in West 1.2 mph 3.1 mph 97% 0 in 0.00 W/m2 unknown
01:09 42.8 °F 42.8 °F 30.1 in WSW 1.9 mph 3.7 mph 97% 0 in 0.00 W/m2 unknown
01:14 42.8 °F 42.8 °F 30.1 in WSW 1.2 mph 3.1 mph 97% 0 in 0.00 W/m2 unknown
01:19 42.8 °F 42.8 °F 30.1 in WSW 1.9 mph 3.1 mph 97% 0 in 0.00 W/m2 unknown
01:24 42.8 °F 42.8 °F 30.1 in WSW 2.5 mph 3.7 mph 97% 0 in 0.00 W/m2 unknown
01:29 42.8 °F 42.8 °F 30.1 in WSW 1.2 mph 3.1 mph 97% 0 in 0.00 W/m2 unknown
01:34 42.8 °F 42.8 °F 30.1 in Calm   1.9 mph 97% 0 in 0.00 W/m2 unknown
01:39 42.8 °F 42.8 °F 30.1 in WSW 1.2 mph 2.5 mph 97% 0 in 0.00 W/m2 unknown
01:44 42.8 °F 42.8 °F 30.1 in WSW 2.5 mph 3.7 mph 97% 0 in 0.00 W/m2 unknown
01:49 42.8 °F 42.8 °F 30.1 in West 2.5 mph 3.7 mph 97% 0 in 0.00 W/m2 unknown
01:54 42.8 °F 42.8 °F 30.1 in West 2.5 mph 3.7 mph 97% 0 in 0.00 W/m2 unknown
01:59 42.8 °F 42.8 °F 30.1 in West 3.1 mph 3.7 mph 97% 0 in 0.00 W/m2 unknown
02:04 42.8 °F 42.8 °F 30.1 in West 3.1 mph 3.7 mph 97% 0 in 0.00 W/m2 unknown
02:09 42.8 °F 42.8 °F 30.1 in West 2.5 mph 3.7 mph 97% 0 in 0.00 W/m2 unknown
02:14 42.8 °F 42.8 °F 30.1 in West 1.9 mph 3.7 mph 96% 0 in 0.00 W/m2 unknown
02:19 42.8 °F 42.8 °F 30.1 in West 1.9 mph 3.7 mph 96% 0 in 0.00 W/m2 unknown
02:24 42.8 °F 42.8 °F 30.1 in West 1.9 mph 3.7 mph 96% 0 in 0.00 W/m2 unknown
02:29 42.8 °F 42.8 °F 30.1 in West 1.9 mph 3.1 mph 96% 0 in 0.00 W/m2 unknown
02:34 42.8 °F 42.8 °F 30.1 in West 1.9 mph 3.7 mph 96% 0 in 0.00 W/m2 unknown
02:39 42.8 °F 42.8 °F 30.1 in West 1.2 mph 2.5 mph 96% 0 in 0.00 W/m2 unknown
02:44 42.8 °F 42.8 °F 30.1 in West 1.2 mph 1.9 mph 96% 0.01 in 0.00 W/m2 unknown
02:49 42.8 °F 42.8 °F 30.1 in Calm   1.2 mph 96% 0.01 in 0.00 W/m2 unknown
02:54 42.8 °F 42.8 °F 30.1 in WSW 1.9 mph 3.7 mph 96% 0.01 in 0.00 W/m2 unknown
02:59 42.8 °F 42.8 °F 30.1 in West 1.9 mph 3.7 mph 96% 0.01 in 0.00 W/m2 unknown
03:04 42.8 °F 42.8 °F 30.1 in West 1.9 mph 3.1 mph 97% 0.01 in 0.00 W/m2 unknown
03:09 42.8 °F 42.8 °F 30.1 in West 1.2 mph 2.5 mph 97% 0.01 in 0.00 W/m2 unknown
03:14 42.8 °F 41 °F 30.1 in West 1.2 mph 2.5 mph 96% 0.01 in 0.00 W/m2 unknown
03:19 42.8 °F 42.8 °F 30.1 in West 1.9 mph 3.1 mph 97% 0.01 in 0.00 W/m2 unknown
03:24 42.8 °F 42.8 °F 30.1 in West 1.9 mph 3.7 mph 97% 0.01 in 0.00 W/m2 unknown
03:29 42.8 °F 42.8 °F 30.1 in WSW 1.9 mph 3.7 mph 97% 0.01 in 0.00 W/m2 unknown
03:34 42.8 °F 42.8 °F 30.1 in WSW 1.9 mph 3.7 mph 97% 0.01 in 0.00 W/m2 unknown
03:39 42.8 °F 42.8 °F 30.1 in WSW 1.9 mph 3.1 mph 97% 0.01 in 0.00 W/m2 unknown
03:44 42.8 °F 42.8 °F 30.1 in West 2.5 mph 3.7 mph 97% 0.01 in 0.00 W/m2 unknown
03:49 42.8 °F 42.8 °F 30.1 in West 3.1 mph 5 mph 97% 0.01 in 0.00 W/m2 unknown
03:54 42.8 °F 42.8 °F 30.1 in West 3.1 mph 5 mph 97% 0.01 in 0.00 W/m2 unknown
03:59 42.8 °F 42.8 °F 30.1 in West 3.1 mph 3.7 mph 97% 0 in 0.00 W/m2 unknown
04:04 42.8 °F 42.8 °F 30.1 in West 1.9 mph 3.7 mph 97% 0 in 0.00 W/m2 unknown
04:09 42.8 °F 42.8 °F 30.1 in West 1.9 mph 3.1 mph 97% 0 in 0.00 W/m2 unknown
04:14 42.8 °F 42.8 °F 30.1 in West 1.9 mph 3.7 mph 97% 0 in 0.00 W/m2 unknown
04:19 42.8 °F 42.8 °F 30.1 in WNW 1.2 mph 3.1 mph 97% 0 in 0.00 W/m2 unknown
04:24 42.8 °F 42.8 °F 30.1 in WNW 1.9 mph 2.5 mph 97% 0 in 0.00 W/m2 unknown
04:29 42.8 °F 42.8 °F 30.1 in WNW 1.9 mph 2.5 mph 97% 0 in 0.00 W/m2 unknown
04:34 42.8 °F 42.8 °F 30.1 in WNW 1.2 mph 2.5 mph 97% 0 in 0.00 W/m2 unknown
04:39 42.8 °F 42.8 °F 30.1 in NW 1.2 mph 2.5 mph 97% 0 in 0.00 W/m2 unknown
04:44 42.8 °F 42.8 °F 30.1 in WNW 1.9 mph 2.5 mph 97% 0 in 0.00 W/m2 unknown
04:49 42.8 °F 42.8 °F 30.1 in WNW 1.2 mph 2.5 mph 97% 0 in 0.00 W/m2 unknown
04:54 42.8 °F 42.8 °F 30.1 in Calm   1.9 mph 97% 0 in 0.00 W/m2 unknown
04:59 42.8 °F 42.8 °F 30.1 in West 1.9 mph 2.5 mph 97% 0 in 0.00 W/m2 unknown
05:04 42.8 °F 42.8 °F 30.1 in WSW 1.9 mph 2.5 mph 97% 0 in 0.00 W/m2 unknown
05:09 42.8 °F 42.8 °F 30.1 in SW 2.5 mph 3.7 mph 97% 0 in 0.00 W/m2 unknown
05:14 42.8 °F 42.8 °F 30.1 in WSW 2.5 mph 3.7 mph 97% 0 in 0.00 W/m2 unknown
05:19 42.8 °F 42.8 °F 30.1 in WSW 1.2 mph 3.1 mph 97% 0 in 0.00 W/m2 unknown
05:24 42.8 °F 42.8 °F 30.1 in Calm   1.2 mph 97% 0 in 0.00 W/m2 unknown
05:29 42.8 °F 42.8 °F 30.1 in WSW 1.2 mph 2.5 mph 97% 0 in 0.00 W/m2 unknown
05:34 42.8 °F 42.8 °F 30.1 in WSW 1.2 mph 2.5 mph 97% 0 in 0.00 W/m2 unknown
05:39 42.8 °F 42.8 °F 30.1 in WSW 3.1 mph 3.7 mph 97% 0 in 0.00 W/m2 unknown
05:44 42.8 °F 42.8 °F 30.1 in West 2.5 mph 3.7 mph 97% 0 in 0.00 W/m2 unknown
05:49 42.8 °F 42.8 °F 30.1 in WNW 1.9 mph 3.1 mph 97% 0 in 0.00 W/m2 unknown
05:54 42.8 °F 42.8 °F 30.1 in West 1.9 mph 3.7 mph 97% 0 in 0.00 W/m2 unknown
05:59 42.8 °F 42.8 °F 30.1 in WSW 3.7 mph 5 mph 97% 0 in 0.00 W/m2 unknown
06:04 42.8 °F 42.8 °F 30.1 in WSW 4.3 mph 5 mph 97% 0 in 0.00 W/m2 unknown
06:09 42.8 °F 42.8 °F 30.1 in WSW 1.9 mph 5 mph 97% 0 in 0.00 W/m2 unknown
06:14 42.8 °F 42.8 °F 30.1 in WSW 1.9 mph 3.7 mph 97% 0 in 0.00 W/m2 unknown
06:19 42.8 °F 42.8 °F 30.1 in WSW 1.9 mph 2.5 mph 97% 0 in 0.00 W/m2 unknown
06:24 42.8 °F 42.8 °F 30.1 in WSW 1.9 mph 2.5 mph 97% 0 in 0.00 W/m2 unknown
06:29 42.8 °F 42.8 °F 30.1 in WSW 1.2 mph 2.5 mph 97% 0 in 0.00 W/m2 unknown
06:34 42.8 °F 42.8 °F 30.1 in West 3.1 mph 3.7 mph 97% 0 in 0.00 W/m2 unknown
06:39 42.8 °F 42.8 °F 30.1 in West 3.1 mph 3.7 mph 97% 0 in 0.00 W/m2 unknown
06:44 42.8 °F 42.8 °F 30.1 in West 1.9 mph 3.7 mph 97% 0 in 0.00 W/m2 unknown
06:49 42.8 °F 42.8 °F 30.1 in West 1.9 mph 3.7 mph 97% 0 in 0.00 W/m2 unknown
06:54 42.8 °F 42.8 °F 30.1 in WSW 1.9 mph 3.7 mph 97% 0 in 0.00 W/m2 unknown
06:59 42.8 °F 42.8 °F 30.1 in WSW 1.2 mph 3.7 mph 97% 0 in 0.00 W/m2 unknown
07:04 42.8 °F 42.8 °F 30.1 in WSW 2.5 mph 3.7 mph 97% 0 in 0.00 W/m2 unknown
07:09 42.8 °F 42.8 °F 30.1 in WSW 2.5 mph 3.7 mph 97% 0 in 0.00 W/m2 unknown
07:14 42.8 °F 42.8 °F 30.1 in WSW 1.9 mph 3.7 mph 97% 0 in 0.00 W/m2 unknown
07:19 42.8 °F 42.8 °F 30.1 in SW 1.9 mph 3.7 mph 97% 0 in 0.00 W/m2 unknown
07:24 42.8 °F 42.8 °F 30.1 in SW 2.5 mph 3.1 mph 97% 0 in 0.00 W/m2 unknown
07:29 42.8 °F 42.8 °F 30.1 in WSW 2.5 mph 3.7 mph 97% 0 in 0.00 W/m2 unknown
07:34 42.8 °F 42.8 °F 30.1 in SW 1.9 mph 3.7 mph 97% 0 in 0.00 W/m2 unknown
07:39 42.8 °F 42.8 °F 30.1 in WSW 3.1 mph 3.7 mph 97% 0 in 0.00 W/m2 unknown
07:44 42.8 °F 42.8 °F 30.1 in WSW 3.1 mph 3.7 mph 97% 0 in 0.00 W/m2 unknown
07:49 42.8 °F 42.8 °F 30.1 in WSW 3.1 mph 3.7 mph 97% 0 in 0.00 W/m2 unknown
07:54 42.8 °F 42.8 °F 30.1 in West 3.1 mph 3.7 mph 97% 0 in 0.00 W/m2 unknown
07:59 42.8 °F 42.8 °F 30.1 in West 1.2 mph 3.1 mph 97% 0 in 0.00 W/m2 unknown
08:04 42.8 °F 42.8 °F 30.1 in West 0.6 mph 1.2 mph 97% 0 in 0.00 W/m2 unknown
08:09 42.8 °F 42.8 °F 30.1 in West 1.2 mph 1.2 mph 97% 0 in 5.00 W/m2 unknown
08:14 42.8 °F 42.8 °F 30.1 in Calm   1.2 mph 97% 0 in 9.00 W/m2 unknown
08:19 42.8 °F 42.8 °F 30.1 in Calm   1.2 mph 97% 0 in 11.00 W/m2 unknown
08:24 42.8 °F 42.8 °F 30.1 in WNW 1.9 mph 3.7 mph 97% 0 in 9.00 W/m2 unknown
08:29 42.8 °F 42.8 °F 30.1 in WNW 1.2 mph 3.7 mph 97% 0 in 11.00 W/m2 unknown
08:33 42.8 °F 42.8 °F 30.1 in WNW 1.2 mph 2.5 mph 97% 0 in 11.00 W/m2 unknown
08:39 42.8 °F 42.8 °F 30.1 in WNW 1.2 mph 2.5 mph 97% 0 in 14.00 W/m2 unknown
08:44 42.8 °F 42.8 °F 30.1 in WNW 1.9 mph 2.5 mph 97% 0 in 16.00 W/m2 unknown
08:49 42.8 °F 42.8 °F 30.1 in WNW 3.1 mph 3.7 mph 97% 0 in 16.00 W/m2 unknown
08:54 42.8 °F 42.8 °F 30.1 in WNW 3.1 mph 3.7 mph 97% 0 in 16.00 W/m2 unknown
08:59 42.8 °F 42.8 °F 30.1 in Calm   3.1 mph 97% 0 in 23.00 W/m2 unknown
09:04 42.8 °F 42.8 °F 30.1 in WNW 2.5 mph 3.1 mph 97% 0 in 23.00 W/m2 unknown
09:09 42.8 °F 42.8 °F 30.1 in WNW 2.5 mph 3.7 mph 97% 0 in 23.00 W/m2 unknown
09:14 42.8 °F 42.8 °F 30.1 in West 2.5 mph 3.7 mph 97% 0 in 26.00 W/m2 unknown
09:19 42.8 °F 42.8 °F 30.1 in West 2.5 mph 3.7 mph 97% 0 in 32.00 W/m2 unknown
09:24 42.8 °F 42.8 °F 30.1 in West 3.1 mph 3.7 mph 97% 0 in 40.00 W/m2 unknown
09:29 42.8 °F 42.8 °F 30.1 in WSW 3.1 mph 3.7 mph 97% 0 in 49.00 W/m2 unknown
09:34 42.8 °F 42.8 °F 30.1 in WSW 2.5 mph 3.7 mph 97% 0 in 49.00 W/m2 unknown
09:39 44.6 °F 42.8 °F 30.1 in WSW 1.9 mph 3.7 mph 97% 0 in 44.00 W/m2 unknown
09:44 44.6 °F 42.8 °F 30.1 in WSW 2.5 mph 3.7 mph 97% 0 in 53.00 W/m2 unknown
09:49 44.6 °F 42.8 °F 30.1 in SW 3.1 mph 3.7 mph 97% 0 in 63.00 W/m2 unknown
09:54 44.6 °F 42.8 °F 30.1 in SW 4.3 mph 6.2 mph 97% 0 in 70.00 W/m2 unknown
09:59 44.6 °F 42.8 °F 30.1 in WSW 4.3 mph 6.2 mph 97% 0 in 69.00 W/m2 unknown
10:04 44.6 °F 42.8 °F 30.1 in SW 3.7 mph 5 mph 97% 0 in 77.00 W/m2 unknown
10:09 44.6 °F 42.8 °F 30.1 in WSW 4.3 mph 6.2 mph 97% 0 in 79.00 W/m2 unknown
10:14 44.6 °F 42.8 °F 30.1 in WSW 5 mph 6.2 mph 97% 0 in 86.00 W/m2 unknown
10:19 44.6 °F 44.6 °F 30.1 in WSW 3.1 mph 5 mph 97% 0 in 91.00 W/m2 unknown
10:24 44.6 °F 44.6 °F 30.1 in WSW 3.1 mph 5 mph 97% 0 in 105.00 W/m2 unknown
10:29 44.6 °F 44.6 °F 30.1 in WSW 5 mph 6.2 mph 97% 0 in 109.00 W/m2 unknown
10:34 44.6 °F 44.6 °F 30.1 in WSW 4.3 mph 6.2 mph 96% 0 in 105.00 W/m2 unknown
10:39 44.6 °F 44.6 °F 30.1 in WSW 3.7 mph 5 mph 96% 0 in 118.00 W/m2 unknown
10:44 44.6 °F 44.6 °F 30.1 in WSW 3.7 mph 5 mph 96% 0 in 105.00 W/m2 unknown
10:49 44.6 °F 44.6 °F 30.1 in WSW 3.1 mph 5 mph 96% 0 in 97.00 W/m2 unknown
10:54 44.6 °F 44.6 °F 30.1 in WNW 2.5 mph 3.7 mph 96% 0 in 100.00 W/m2 unknown
10:59 44.6 °F 44.6 °F 30.1 in WSW 3.7 mph 3.7 mph 96% 0 in 100.00 W/m2 unknown
11:04 46.4 °F 44.6 °F 30.1 in WSW 3.7 mph 5 mph 95% 0 in 97.00 W/m2 unknown
11:09 46.4 °F 44.6 °F 30.1 in West 3.1 mph 5 mph 95% 0 in 91.00 W/m2 unknown
11:14 46.4 °F 44.6 °F 30.1 in WSW 5 mph 6.2 mph 95% 0 in 86.00 W/m2 unknown
11:19 46.4 °F 44.6 °F 30.1 in WSW 5.6 mph 6.8 mph 94% 0 in 84.00 W/m2 unknown
11:24 46.4 °F 44.6 °F 30.1 in WSW 5.6 mph 6.8 mph 94% 0 in 93.00 W/m2 unknown
11:29 46.4 °F 44.6 °F 30.1 in WSW 4.3 mph 6.2 mph 94% 0 in 109.00 W/m2 unknown
11:34 46.4 °F 44.6 °F 30.1 in WSW 5 mph 6.2 mph 94% 0 in 109.00 W/m2 unknown
11:39 46.4 °F 44.6 °F 30.1 in WSW 3.7 mph 5 mph 93% 0 in 83.00 W/m2 unknown
11:44 46.4 °F 44.6 °F 30.1 in WSW 3.7 mph 5 mph 93% 0 in 79.00 W/m2 unknown
11:49 46.4 °F 44.6 °F 30.1 in West 4.3 mph 5 mph 92% 0 in 90.00 W/m2 unknown
11:54 46.4 °F 44.6 °F 30.1 in West 5 mph 6.2 mph 92% 0 in 109.00 W/m2 unknown
11:59 46.4 °F 44.6 °F 30.1 in West 5 mph 6.2 mph 92% 0 in 113.00 W/m2 unknown
12:04 46.4 °F 44.6 °F 30.1 in West 4.3 mph 6.2 mph 92% 0 in 114.00 W/m2 unknown
12:09 46.4 °F 44.6 °F 30.1 in West 4.3 mph 6.2 mph 92% 0 in 104.00 W/m2 unknown
12:14 46.4 °F 44.6 °F 30.1 in West 5 mph 6.8 mph 92% 0 in 128.00 W/m2 unknown
12:19 46.4 °F 44.6 °F 30.1 in West 5 mph 6.8 mph 92% 0 in 146.00 W/m2 unknown
12:24 46.4 °F 44.6 °F 30.1 in WNW 5.6 mph 6.8 mph 92% 0 in 127.00 W/m2 unknown
12:29 46.4 °F 44.6 °F 30.1 in West 3.7 mph 6.8 mph 92% 0 in 104.00 W/m2 unknown
12:34 46.4 °F 44.6 °F 30.1 in West 4.3 mph 6.2 mph 92% 0 in 121.00 W/m2 unknown
12:39 46.4 °F 44.6 °F 30.1 in WNW 5.6 mph 6.8 mph 92% 0 in 130.00 W/m2 unknown
12:44 46.4 °F 44.6 °F 30.1 in WNW 6.2 mph 6.8 mph 92% 0 in 149.00 W/m2 unknown
12:49 46.4 °F 44.6 °F 30.1 in WNW 5 mph 6.8 mph 92% 0 in 149.00 W/m2 unknown
12:54 46.4 °F 44.6 °F 30.1 in WNW 5 mph 6.2 mph 92% 0 in 130.00 W/m2 unknown
12:59 46.4 °F 44.6 °F 30.1 in WSW 3.7 mph 5 mph 92% 0 in 95.00 W/m2 unknown
13:04 46.4 °F 44.6 °F 30.1 in West 3.7 mph 5 mph 92% 0 in 84.00 W/m2 unknown
13:09 46.4 °F 44.6 °F 30.1 in West 4.3 mph 5 mph 92% 0 in 84.00 W/m2 unknown
13:14 46.4 °F 44.6 °F 30.1 in West 3.1 mph 5 mph 92% 0 in 81.00 W/m2 unknown
13:19 46.4 °F 44.6 °F 30.1 in West 4.3 mph 6.2 mph 92% 0 in 123.00 W/m2 unknown
13:24 46.4 °F 44.6 °F 30.1 in WSW 5 mph 6.2 mph 92% 0 in 100.00 W/m2 unknown
13:29 46.4 °F 44.6 °F 30 in WSW 5.6 mph 6.2 mph 92% 0 in 199.00 W/m2 unknown
13:34 48.2 °F 44.6 °F 30 in WSW 5.6 mph 6.8 mph 92% 0 in 299.00 W/m2 unknown
13:39 48.2 °F 44.6 °F 30 in SW 6.8 mph 8.1 mph 92% 0 in 281.00 W/m2 unknown
13:44 48.2 °F 46.4 °F 30 in WSW 6.8 mph 8.1 mph 92% 0 in 281.00 W/m2 unknown
13:49 48.2 °F 46.4 °F 30 in WSW 8.1 mph 10.6 mph 92% 0 in 274.00 W/m2 unknown
13:54 48.2 °F 44.6 °F 30 in WSW 6.8 mph 10.6 mph 91% 0 in 258.00 W/m2 unknown
13:59 48.2 °F 44.6 °F 30 in WSW 7.5 mph 9.3 mph 91% 0 in 127.00 W/m2 unknown
14:04 48.2 °F 44.6 °F 30 in WSW 6.8 mph 9.3 mph 91% 0 in 139.00 W/m2 unknown
14:09 48.2 °F 44.6 °F 30 in WSW 6.2 mph 8.7 mph 91% 0 in 174.00 W/m2 unknown
14:14 48.2 °F 44.6 °F 30 in WSW 5 mph 8.1 mph 91% 0 in 171.00 W/m2 unknown
14:19 48.2 °F 44.6 °F 30 in WSW 5 mph 8.1 mph 91% 0 in 246.00 W/m2 unknown
14:24 48.2 °F 46.4 °F 30 in WSW 5 mph 8.1 mph 91% 0 in 213.00 W/m2 unknown
14:29 48.2 °F 46.4 °F 30 in SW 5 mph 6.2 mph 91% 0 in 209.00 W/m2 unknown
14:34 48.2 °F 46.4 °F 30 in WSW 6.2 mph 8.1 mph 91% 0 in 163.00 W/m2 unknown
14:39 48.2 °F 46.4 °F 30 in WSW 6.2 mph 8.1 mph 91% 0 in 127.00 W/m2 unknown
14:44 48.2 °F 44.6 °F 30 in WSW 5 mph 8.1 mph 91% 0 in 109.00 W/m2 unknown
14:49 48.2 °F 44.6 °F 30 in WSW 5 mph 8.1 mph 91% 0 in 97.00 W/m2 unknown
14:54 48.2 °F 44.6 °F 30 in WSW 4.3 mph 6.8 mph 91% 0 in 72.00 W/m2 unknown
14:59 48.2 °F 44.6 °F 30 in WSW 3.7 mph 6.2 mph 92% 0 in 62.00 W/m2 unknown
15:04 48.2 °F 44.6 °F 30 in WSW 4.3 mph 6.2 mph 92% 0 in 62.00 W/m2 unknown
15:09 48.2 °F 44.6 °F 30 in WSW 3.1 mph 5 mph 92% 0 in 54.00 W/m2 unknown
15:14 48.2 °F 46.4 °F 30 in WSW 3.1 mph 5 mph 96% 0 in 49.00 W/m2 unknown
15:19 48.2 °F 46.4 °F 30 in WSW 2.5 mph 3.7 mph 96% 0 in 47.00 W/m2 unknown
15:24 48.2 °F 44.6 °F 30 in WSW 3.1 mph 3.7 mph 92% 0 in 44.00 W/m2 unknown
15:29 46.4 °F 44.6 °F 30 in WSW 3.7 mph 5 mph 92% 0 in 44.00 W/m2 unknown
15:34 46.4 °F 44.6 °F 30 in WSW 3.7 mph 5 mph 92% 0 in 44.00 W/m2 unknown
15:39 46.4 °F 44.6 °F 30 in WSW 3.7 mph 5 mph 93% 0 in 39.00 W/m2 unknown
15:44 46.4 °F 44.6 °F 30 in WSW 2.5 mph 3.7 mph 93% 0 in 35.00 W/m2 unknown
15:49 46.4 °F 44.6 °F 30 in WSW 2.5 mph 3.7 mph 93% 0 in 32.00 W/m2 unknown
15:54 46.4 °F 44.6 °F 30 in WSW 2.5 mph 3.7 mph 93% 0 in 32.00 W/m2 unknown
15:59 46.4 °F 44.6 °F 30 in West 1.9 mph 3.7 mph 93% 0 in 32.00 W/m2 unknown
16:04 46.4 °F 44.6 °F 30 in WSW 3.1 mph 3.7 mph 93% 0 in 25.00 W/m2 unknown
16:09 46.4 °F 44.6 °F 30 in West 2.5 mph 3.7 mph 93% 0 in 23.00 W/m2 unknown
16:14 46.4 °F 44.6 °F 30 in West 2.5 mph 3.7 mph 93% 0 in 19.00 W/m2 unknown
16:19 46.4 °F 44.6 °F 30 in West 2.5 mph 3.7 mph 93% 0 in 18.00 W/m2 unknown
16:24 46.4 °F 44.6 °F 30 in West 2.5 mph 3.7 mph 93% 0 in 12.00 W/m2 unknown
16:29 46.4 °F 42.8 °F 30 in West 1.2 mph 1.9 mph 94% 0 in 7.00 W/m2 unknown
16:34 44.6 °F 42.8 °F 30 in NNW 1.2 mph 3.1 mph 94% 0 in 5.00 W/m2 unknown
16:39 44.6 °F 42.8 °F 30 in North 1.9 mph 3.7 mph 94% 0 in 0.00 W/m2 unknown
16:44 44.6 °F 42.8 °F 30 in Calm   3.1 mph 94% 0 in 0.00 W/m2 unknown
16:49 44.6 °F 42.8 °F 30 in Calm     94% 0 in 0.00 W/m2 unknown
16:54 44.6 °F 42.8 °F 30 in Calm     94% 0 in 0.00 W/m2 unknown
16:59 44.6 °F 42.8 °F 30 in Calm     94% 0 in 0.00 W/m2 unknown
17:04 42.8 °F 42.8 °F 30 in Calm     95% 0 in 0.00 W/m2 unknown
17:09 42.8 °F 42.8 °F 30 in Calm     95% 0 in 0.00 W/m2 unknown
17:14 42.8 °F 42.8 °F 30 in Calm     95% 0 in 0.00 W/m2 unknown
17:19 42.8 °F 42.8 °F 30 in ESE 2.5 mph 3.7 mph 95% 0 in 0.00 W/m2 unknown
17:24 42.8 °F 42.8 °F 30 in ESE 3.1 mph 3.7 mph 95% 0 in 0.00 W/m2 unknown
17:29 42.8 °F 42.8 °F 30 in SE 3.1 mph 3.7 mph 95% 0 in 0.00 W/m2 unknown
17:34 42.8 °F 42.8 °F 30 in SE 2.5 mph 3.7 mph 95% 0 in 0.00 W/m2 unknown
17:39 42.8 °F 42.8 °F 30 in SE 1.2 mph 3.1 mph 95% 0 in 0.00 W/m2 unknown
17:44 42.8 °F 42.8 °F 30 in South 2.5 mph 3.7 mph 95% 0 in 0.00 W/m2 unknown
17:49 44.6 °F 42.8 °F 30 in SSW 5.6 mph 6.8 mph 95% 0 in 0.00 W/m2 unknown
17:54 44.6 °F 42.8 °F 30 in South 6.2 mph 6.8 mph 95% 0 in 0.00 W/m2 unknown
17:59 44.6 °F 42.8 °F 30 in SSW 2.5 mph 6.2 mph 95% 0 in 0.00 W/m2 unknown
18:04 44.6 °F 42.8 °F 30 in SSE 1.9 mph 3.7 mph 95% 0 in 0.00 W/m2 unknown
18:09 44.6 °F 42.8 °F 30 in SSE 1.9 mph 3.7 mph 95% 0 in 0.00 W/m2 unknown
18:14 44.6 °F 42.8 °F 30 in South 1.9 mph 3.7 mph 95% 0 in 0.00 W/m2 unknown
18:19 44.6 °F 42.8 °F 30 in South 1.2 mph 3.7 mph 95% 0 in 0.00 W/m2 unknown
18:24 44.6 °F 42.8 °F 30 in South 1.2 mph 2.5 mph 95% 0 in 0.00 W/m2 unknown
18:29 44.6 °F 42.8 °F 30 in South 1.2 mph 2.5 mph 95% 0 in 0.00 W/m2 unknown
18:34 44.6 °F 42.8 °F 30 in SE 2.5 mph 3.7 mph 95% 0 in 0.00 W/m2 unknown
18:39 44.6 °F 42.8 °F 30 in ESE 2.5 mph 3.7 mph 95% 0 in 0.00 W/m2 unknown
18:44 44.6 °F 42.8 °F 30 in ESE 1.9 mph 3.1 mph 95% 0 in 0.00 W/m2 unknown
18:49 44.6 °F 42.8 °F 30 in ESE 2.5 mph 3.7 mph 95% 0 in 0.00 W/m2 unknown
18:54 44.6 °F 42.8 °F 30 in SSE 1.9 mph 3.7 mph 95% 0 in 0.00 W/m2 unknown
18:59 44.6 °F 42.8 °F 30 in South 1.9 mph 3.7 mph 95% 0 in 0.00 W/m2 unknown
19:04 44.6 °F 42.8 °F 30 in South 1.2 mph 3.1 mph 95% 0 in 0.00 W/m2 unknown
19:09 44.6 °F 42.8 °F 30 in Calm   1.9 mph 95% 0 in 0.00 W/m2 unknown
19:14 44.6 °F 42.8 °F 30 in Calm     96% 0 in 0.00 W/m2 unknown
19:19 44.6 °F 42.8 °F 30 in South 1.2 mph 2.5 mph 96% 0 in 0.00 W/m2 unknown
19:24 44.6 °F 42.8 °F 30 in SSW 1.2 mph 2.5 mph 96% 0 in 0.00 W/m2 unknown
19:29 44.6 °F 42.8 °F 30 in SSW 0.6 mph 1.2 mph 96% 0 in 0.00 W/m2 unknown
19:34 44.6 °F 42.8 °F 30 in Calm   1.2 mph 96% 0 in 0.00 W/m2 unknown
19:39 44.6 °F 42.8 °F 30 in Calm     96% 0 in 0.00 W/m2 unknown
19:44 44.6 °F 42.8 °F 30 in Calm     96% 0 in 0.00 W/m2 unknown
19:49 44.6 °F 42.8 °F 30 in Calm     96% 0 in 0.00 W/m2 unknown
19:54 44.6 °F 42.8 °F 30 in Calm     96% 0 in 0.00 W/m2 unknown
19:59 44.6 °F 42.8 °F 30 in Calm     96% 0 in 0.00 W/m2 unknown
20:04 44.6 °F 42.8 °F 30 in Calm     96% 0 in 0.00 W/m2 unknown
20:09 44.6 °F 42.8 °F 30 in Calm     96% 0 in 0.00 W/m2 unknown
20:14 44.6 °F 42.8 °F 30 in Calm     96% 0 in 0.00 W/m2 unknown
20:19 44.6 °F 42.8 °F 30 in Calm     96% 0 in 0.00 W/m2 unknown
20:24 44.6 °F 42.8 °F 30 in Calm     96% 0 in 0.00 W/m2 unknown
20:29 44.6 °F 42.8 °F 30 in Calm     96% 0 in 0.00 W/m2 unknown
20:34 44.6 °F 42.8 °F 30 in ENE 1.2 mph 1.9 mph 95% 0 in 0.00 W/m2 unknown
20:39 44.6 °F 42.8 °F 30 in ENE 1.2 mph 2.5 mph 95% 0 in 0.00 W/m2 unknown
20:44 44.6 °F 42.8 °F 30 in ENE 1.2 mph 1.9 mph 95% 0 in 0.00 W/m2 unknown
20:49 44.6 °F 42.8 °F 30 in ENE 0.6 mph 1.2 mph 95% 0 in 0.00 W/m2 unknown
20:53 44.6 °F 42.8 °F 30 in ENE 0.6 mph 1.2 mph 95% 0 in 0.00 W/m2 unknown
20:59 44.6 °F 42.8 °F 30 in ENE 0.6 mph 1.2 mph 95% 0 in 0.00 W/m2 unknown
21:04 44.6 °F 42.8 °F 30 in Calm     95% 0 in 0.00 W/m2 unknown
21:09 44.6 °F 42.8 °F 30 in Calm     95% 0 in 0.00 W/m2 unknown
21:14 44.6 °F 42.8 °F 30 in ENE 1.2 mph 1.9 mph 95% 0 in 0.00 W/m2 unknown
21:19 44.6 °F 42.8 °F 30 in East 1.9 mph 2.5 mph 95% 0 in 0.00 W/m2 unknown
21:24 44.6 °F 42.8 °F 30 in SE 3.1 mph 3.7 mph 95% 0 in 0.00 W/m2 unknown
21:29 44.6 °F 42.8 °F 30 in SE 1.9 mph 3.7 mph 96% 0 in 0.00 W/m2 unknown
21:34 44.6 °F 42.8 °F 30 in ESE 3.1 mph 3.7 mph 96% 0 in 0.00 W/m2 unknown
21:39 44.6 °F 42.8 °F 30 in ENE 1.9 mph 3.7 mph 96% 0 in 0.00 W/m2 unknown
21:44 44.6 °F 42.8 °F 30 in ENE 1.2 mph 2.5 mph 96% 0 in 0.00 W/m2 unknown
21:49 44.6 °F 42.8 °F 30 in Calm   1.9 mph 95% 0 in 0.00 W/m2 unknown
21:54 44.6 °F 42.8 °F 30 in Calm     95% 0 in 0.00 W/m2 unknown
21:59 44.6 °F 42.8 °F 30 in Calm     95% 0 in 0.00 W/m2 unknown
22:04 44.6 °F 42.8 °F 30 in Calm     95% 0 in 0.00 W/m2 unknown
22:09 44.6 °F 42.8 °F 30 in Calm     95% 0 in 0.00 W/m2 unknown
22:14 44.6 °F 42.8 °F 30 in Calm     95% 0 in 0.00 W/m2 unknown
22:19 44.6 °F 42.8 °F 30 in East 2.5 mph 3.7 mph 96% 0 in 0.00 W/m2 unknown
22:24 44.6 °F 42.8 °F 30 in East 2.5 mph 3.7 mph 95% 0 in 0.00 W/m2 unknown
22:29 44.6 °F 42.8 °F 30 in East 1.2 mph 3.1 mph 95% 0 in 0.00 W/m2 unknown
22:34 44.6 °F 42.8 °F 30 in East 1.9 mph 2.5 mph 95% 0 in 0.00 W/m2 unknown
22:39 44.6 °F 42.8 °F 30 in ESE 1.9 mph 2.5 mph 96% 0 in 0.00 W/m2 unknown
22:44 44.6 °F 42.8 °F 30 in ESE 1.2 mph 2.5 mph 96% 0 in 0.00 W/m2 unknown
22:49 44.6 °F 42.8 °F 30 in ESE 1.2 mph 2.5 mph 96% 0 in 0.00 W/m2 unknown
22:54 44.6 °F 42.8 °F 30 in ESE 1.2 mph 2.5 mph 96% 0 in 0.00 W/m2 unknown
22:59 44.6 °F 42.8 °F 30 in Calm   1.9 mph 96% 0 in 0.00 W/m2 unknown
23:04 44.6 °F 42.8 °F 30 in Calm     96% 0 in 0.00 W/m2 unknown
23:09 44.6 °F 42.8 °F 30 in Calm     96% 0 in 0.00 W/m2 unknown
23:14 44.6 °F 42.8 °F 30 in Calm     96% 0 in 0.00 W/m2 unknown
23:19 44.6 °F 42.8 °F 30 in SE 1.2 mph 2.5 mph 96% 0 in 0.00 W/m2 unknown
23:24 44.6 °F 42.8 °F 30 in SSE 1.9 mph 2.5 mph 96% 0 in 0.00 W/m2 unknown
23:29 44.6 °F 42.8 °F 30 in South 1.2 mph 2.5 mph 96% 0 in 0.00 W/m2 unknown
23:34 44.6 °F 42.8 °F 30 in SSW 1.9 mph 2.5 mph 96% 0 in 0.00 W/m2 unknown
23:39 44.6 °F 42.8 °F 30 in SSW 1.9 mph 2.5 mph 96% 0 in 0.00 W/m2 unknown
23:44 44.6 °F 42.8 °F 30 in SW 1.9 mph 3.1 mph 96% 0 in 0.00 W/m2 unknown
23:49 44.6 °F 42.8 °F 30 in WSW 1.9 mph 3.7 mph 96% 0 in 0.00 W/m2 unknown
23:54 44.6 °F 42.8 °F 30 in Calm   3.1 mph 96% 0 in 0.00 W/m2 unknown
23:59 44.6 °F 42.8 °F 30 in WSW 1.2 mph 2.5 mph 96% 0 in 0.00 W/m2 unknown
Stazione Meteorologica MeteoMincio Rivalta s/M (MN)
Con i complimenti di Weather Underground - 2 mb



METEO PILLOLE
La più grave siccità negli USA
Grandi pianure:
Dal 1930 al 1938 l'erosione favorita dalle pratiche agricole, i forti venti e l'assenza di precipitazioni convertirono in polvere circa 200.000 Km quadrati di terreno coltivabile.
Share

Non seguire questo link o sarai bannato dal sito!